Regional Weather Roundup
Issued by NWS Memphis, TN

Home | Current Version | Previous Version | Text Only | Print | Product List | Glossary On
Versions: 1 2 3 4 5 6 7 8 9 10 11 12 13 14 15 16 17 18 19 20 21 22 23 24 25 26 27 28 29 30 31 32 33 34 35 36 37 38 39 40 41 42 43 44 45 46 47 48 49 50
000
ASUS44 KMEG 241910
RWRMEG
MEMPHIS CWA HOURLY WEATHER ROUNDUP
NATIONAL WEATHER SERVICE MEMPHIS TN
200 PM CDT SUN SEP 24 2017

...WEST TENNESSEE...

CITY           SKY/WX    TMP DP  RH WIND       PRES   REMARKS
MEMPHIS INTL   PTSUNNY   89  67  47 S8        29.99F HX  92
NWS MEMPHIS      N/A     84 N/A N/A MISG        N/A
JACKSON        PTSUNNY   88  71  57 E6        30.00F HX  94
COVINGTON      SUNNY     84  70  61 S5        29.99F
SOMERVILLE     CLOUDY    84  70  61 NW6G14    29.99F
BOLIVAR        SUNNY     88  70  55 SE3       29.99F HX  92
LEXINGTON      MOSUNNY   88  66  48 VRB5      30.01F HX  90
SELMER         PTSUNNY   86  68  54 E7        30.01F
SAVANNAH       SUNNY     88  66  48 S7        30.00F HX  90
DYERSBURG      MOSUNNY   89  71  55 SE6       30.00F HX  95
PARIS          PTSUNNY   88  68  51 SE6       30.00F HX  91
HUNTINGDON     MOSUNNY   88  68  51 VRB5      30.00F HX  91


...EASTERN ARKANSAS...

CITY           SKY/WX    TMP DP  RH WIND       PRES   REMARKS
JONESBORO      MOSUNNY   93  69  45 CALM      29.97F HX  98
WEST MEMPHIS   MOSUNNY   91  69  48 S9        29.97F HX  96
BATESVILLE     PTSUNNY   91  67  44 S9        29.99F HX  94
NEWPORT        MOSUNNY   92  67  43 VRB5      29.98F HX  95
BLYTHEVILLE    SUNNY     90  69  50 S8        29.98F HX  94
SEARCY         SUNNY     90  69  50 VRB6      29.99F HX  94
STUTTGART      SUNNY     90  64  42 SE12      29.97F HX  91
PINE BLUFF     PTSUNNY   90  66  45 VRB5      29.96F HX  92
MONTICELLO     MOSUNNY   89  67  47 VRB5      29.96F HX  92


...NORTH MISSISSIPPI...

CITY           SKY/WX    TMP DP  RH WIND       PRES   REMARKS
TUPELO         PTSUNNY   89  62  40 E7        29.99F
BATESVILLE     SUNNY     89  65  45 SE6       30.00F HX  90
OLIVE BRANCH   PTSUNNY  N/A N/A N/A CALM      29.98F
TUNICA           N/A    N/A N/A N/A E7        29.99F
CLARKSDALE       N/A     90  68  48 E10       29.98F HX  93
GREENWOOD      MOSUNNY   88  65  46 E8        29.96F HX  90
COLUMBUS       MOSUNNY   86  69  57 NE5       29.98F HX  90
STARKVILLE     SUNNY     86  66  51 SE5       30.00S
GOLDEN TRIANGL MOSUNNY   84  68  58 E9        29.99F


...SOUTHEAST MISSOURI...

CITY           SKY/WX    TMP DP  RH WIND       PRES   REMARKS
KENNETT        SUNNY     90  66  45 S6        29.96F HX  92
MALDEN         MOSUNNY   90  63  40 N16G26    30.00S THUNDER HX  90
WEST PLAINS    MOSUNNY   89  63  41 VRB7      30.02F HX  90
POPLAR BLUFF   MOSUNNY   90  65  43 VRB3      29.97F HX  92
CAPE GIRARDEAU SUNNY     92  67  43 NE8       29.98F HX  95


...NORTHWEST ALABAMA...

CITY           SKY/WX    TMP DP  RH WIND       PRES   REMARKS
MUSCLE SHOALS  MOSUNNY   86  63  45 SE5       30.03F


...MIDDLE TENNESSEE...

CITY           SKY/WX    TMP DP  RH WIND       PRES   REMARKS
NASHVILLE      MOSUNNY   89  61  38 S7        30.03F
CLARKSVILLE    MOSUNNY   85  67  54 SE3       30.02F
COLUMBIA       SUNNY     86 N/A N/A CALM      30.01F


...WESTERN KENTUCKY...

CITY           SKY/WX    TMP DP  RH WIND       PRES   REMARKS
PADUCAH        MOSUNNY   90  65  43 SE9       29.99F HX  92
FORT CAMPBELL  PTSUNNY   88  69  53 N6        30.01F HX  92


...CENTRAL ARKANSAS...

CITY           SKY/WX    TMP DP  RH WIND       PRES   REMARKS
LITTLE ROCK    MOSUNNY   90  68  48 SE8       29.96F HX  94


SKY/WX REPORTED AS FAIR MEANS FEW OR NO CLOUDS BELOW
12 THOUSAND FEET.





USA.gov is the U.S. government's official web portal to all federal, state and local government web resources and services.